Regional Weather Roundup
Issued by NWS Little Rock, AR

Home | Current Version | Previous Version | Text Only | Print | Product List | Glossary On
Versions: 1 2 3 4 5 6 7 8 9 10 11 12 13 14 15 16 17 18 19 20 21 22 23 24 25 26 27 28 29 30 31
000
ASUS44 KLZK 231705
RWRLZK

WEATHER ROUNDUP FOR ARKANSAS
NATIONAL WEATHER SERVICE LITTLE ROCK AR
1200 PM CDT SAT SEP 23 2017

NOTE: "FAIR" INDICATES FEW OR NO CLOUDS BELOW 12,000 FEET WITH NO
SIGNIFICANT WEATHER AND/OR OBSTRUCTIONS TO VISIBILITY.

ARZ001-003-010-029-231800-
NORTHWEST ARKANSAS

CITY           SKY/WX    TMP DP  RH WIND       PRES   REMARKS
FAYETTEVILLE   SUNNY     85  67  54 CALM      30.06F HX  87
FORT SMITH     SUNNY     88  69  53 CALM      30.02F HX  92
HARRISON       SUNNY     88  64  44 E7        30.08F HX  89
BENTONVILLE    SUNNY     85  67  54 SE8       30.09F HX  87
ROGERS         SUNNY     85  67  54 S8        30.08F HX  87
SILOAM SPGS    MOSUNNY   86  65  49 S8        30.07F HX  88
HIGHFILL       SUNNY     86  67  52 S9        30.07F HX  89
$$

ARZ004-005-016-231800-
NORTH CENTRAL ARKANSAS

CITY           SKY/WX    TMP DP  RH WIND       PRES   REMARKS
BATESVILLE     SUNNY     87  69  54 CALM      30.05F HX  91
FLIPPIN        SUNNY     87  68  52 SE6       30.07F HX  90
MTN HOME       MOSUNNY   85  67  54 CALM      30.06F HX  87
$$

ARZ040-041-231800-
WEST CENTRAL ARKANSAS

CITY           SKY/WX    TMP DP  RH WIND       PRES   REMARKS
MENA           SUNNY     90  68  48 E6        30.04F HX  93
MOUNT IDA      SUNNY     90  65  43 N5        30.01F HX  92
$$

ARZ009-017-025-026-028-231800-
NORTHEAST ARKANSAS

CITY           SKY/WX    TMP DP  RH WIND       PRES   REMARKS
CORNING        FAIR      88  70  55 NE5       30.05F HX  92
JONESBORO      MOSUNNY   89  70  53 E6        30.04S HX  94
NEWPORT        MOSUNNY   86  68  54 E7        30.04F HX  89
BLYTHEVILLE    SUNNY     88  71  57 E7        30.04F HX  94
$$

ARZ022-023-033-042-044-231800-
CENTRAL ARKANSAS

CITY           SKY/WX    TMP DP  RH WIND       PRES   REMARKS
LITTLE ROCK    MOSUNNY   89  70  53 NE6       30.02F HX  94
N LITTLE ROCK    N/A     90  71  52 E7        30.03S HX  96
JACKSONVILLE   SUNNY     90  70  50 E6        30.02F HX  95
CONWAY           N/A     88  68  51 VRB3      30.00F HX  91
SEARCY         SUNNY     90  72  55 E9        30.05F HX  97
HOT SPRINGS    PTSUNNY   89  67  47 MISG      30.02F HX  92
RUSSELLVILLE   SUNNY     89  67  47 E5        30.02F HX  92
CLINTON        FAIR      88  68  51 CALM      30.04F HAZE    HX  91
$$

ARZ036-231800-
EAST ARKANSAS

CITY           SKY/WX    TMP DP  RH WIND       PRES   REMARKS
WEST MEMPHIS   MOSUNNY   90  70  51 E7        30.02F HX  95
$$

ARZ050-053-066-070-073-231800-
SOUTHWEST ARKANSAS

CITY           SKY/WX    TMP DP  RH WIND       PRES   REMARKS
ARKADELPHIA    FAIR      89  72  56 CALM      30.01F HX  96
CAMDEN         SUNNY     93  70  46 CALM      30.00S HX  99
TEXARKANA      SUNNY     88  70  55 VRB6      29.99F HX  93
EL DORADO      MOSUNNY   89  70  53 E6        30.01S HX  94
DE QUEEN       SUNNY     89  69  51 VRB3      29.99S HX  93
$$

ARZ056-057-069-231800-
SOUTHEAST ARKANSAS

CITY           SKY/WX    TMP DP  RH WIND       PRES   REMARKS
PINE BLUFF     CLOUDY    88  69  53 N5        30.02S HX  92
STUTTGART      MOSUNNY   89  70  53 E8        30.02F HX  94
MONTICELLO     SUNNY     89  70  53 E5        30.01S HX  94

$$






USA.gov is the U.S. government's official web portal to all federal, state and local government web resources and services.